Waarnemingen

Advertentie
Mijn weer
Camborne, Groot Brittannië (3808): temperatuur & dauwpunt: 26.03.2020 18:00:00 - 01.04.2020 18:00:00 (BST)Camborne, Groot Brittannië (3808): temperatuur -20cm & temperatuur -100cm: 26.03.2020 18:00:00 - 01.04.2020 18:00:00 (BST)Camborne, Groot Brittannië (3808): windsnelheid & windstoten: 26.03.2020 18:00:00 - 01.04.2020 18:00:00 (BST)Camborne, Groot Brittannië (3808): windrichting: 26.03.2020 18:00:00 - 01.04.2020 18:00:00 (BST)Camborne, Groot Brittannië (3808): luchtdruk: 26.03.2020 18:00:00 - 01.04.2020 18:00:00 (BST)Camborne, Groot Brittannië (3808): zicht: 26.03.2020 18:00:00 - 01.04.2020 18:00:00 (BST)Camborne, Groot Brittannië (3808): Zonneschijnduur: 26.03.2020 18:00:00 - 01.04.2020 18:00:00 (BST)Camborne, Groot Brittannië (3808): neerslag: 26.03.2020 18:00:00 - 01.04.2020 18:00:00 (BST)
Datum & Tijd tt [°C] td [°C] tt -20cm [°C] tt -100cm [°C] ff [km/u] ff [kn] fx [km/u] fx [kn] dd ppp [hPa] vv [km] sd [min] rr [mm]
01.04.2020 18:00:00 - - - - - - - - - - - - -
01.04.2020 17:00:00 8,4 0,4 - - 26 14 - - NNO 1023,6 45 42 0,0
01.04.2020 16:00:00 8,5 0,3 - - 24 13 - - N 1023,9 35 48 0,0
01.04.2020 15:00:00 8,4 0,7 - - 26 14 - - NNO 1024,3 25 24 0,0
01.04.2020 14:00:00 9,1 0,5 - - 26 14 - - N 1024,6 25 48 0,0
01.04.2020 13:00:00 8,9 0,4 - - 24 13 - - NNO 1025,1 25 12 0,0
01.04.2020 12:00:00 7,3 0,1 - - 22 12 - - NNO 1025,7 20 12 0,0
01.04.2020 11:00:00 7,3 0,0 - - 24 13 - - NNO 1026,1 20 54 0,0
01.04.2020 10:00:00 7,2 -1,3 10,2 10,0 21 11 - - NO 1026,3 30 60 0,0
01.04.2020 09:00:00 4,9 0,2 - - 11 6 - - ONO 1026,5 25 60 0,0
01.04.2020 08:00:00 2,4 -1,0 - - 8 4 - - NNO 1026,7 25 30 0,0
01.04.2020 07:00:00 1,8 -1,1 - - 8 4 - - NNO 1026,4 30 0 0,0
01.04.2020 06:00:00 2,5 -1,5 - - 8 4 - - O 1026,4 35 0 0,0
01.04.2020 05:00:00 3,0 -1,3 - - 9 5 - - O 1026,7 35 0 0,0
01.04.2020 04:00:00 3,2 -1,1 - - 9 5 - - O 1027,1 35 0 0,0
01.04.2020 03:00:00 3,8 -0,9 - - 13 7 - - ONO 1027,6 35 0 0,0
01.04.2020 02:00:00 3,6 -0,7 - - 13 7 - - ONO 1028,3 30 0 0,0
01.04.2020 01:00:00 4,1 -0,7 - - 13 7 - - ONO 1028,4 35 - 0,0
01.04.2020 00:00:00 4,4 -0,6 - - 13 7 - - NO 1028,7 35 0 0,0
31.03.2020 23:00:00 5,0 -0,4 - - 11 6 - - NO 1028,9 35 0 0,0
31.03.2020 22:00:00 5,7 -0,2 - - 13 7 - - NO 1029,1 35 0 0,0
31.03.2020 21:00:00 6,3 -0,3 - - 13 7 - - NO 1029,1 30 0 0,0
31.03.2020 20:00:00 7,8 -1,0 - - 13 7 - - NO 1028,9 35 42 0,0
31.03.2020 19:00:00 8,9 1,7 - - 21 11 - - NO 1028,7 30 42 0,0
31.03.2020 18:00:00 9,1 -1,1 - - 21 11 - - O 1028,8 35 42 0,0
31.03.2020 17:00:00 9,7 -1,0 - - 18 10 - - O 1029,1 35 48 0,0
31.03.2020 16:00:00 10,3 -0,6 - - 22 12 - - O 1029,3 35 54 0,0
31.03.2020 15:00:00 10,4 0,4 - - 21 11 - - O 1030,0 40 48 0,0
31.03.2020 14:00:00 9,8 -0,4 - - 22 12 - - O 1030,5 40 60 0,0
31.03.2020 13:00:00 9,5 -0,9 - - 22 12 - - O 1031,0 50 60 0,0
31.03.2020 12:00:00 8,5 -1,6 - - 22 12 - - ONO 1031,4 50 24 0,0
31.03.2020 11:00:00 7,3 -0,7 - - 24 13 - - ONO 1031,9 50 42 0,0
31.03.2020 10:00:00 7,3 -0,3 10,0 10,0 31 17 50 27 ONO 1032,0 50 54 0,0
31.03.2020 09:00:00 6,0 0,2 - - 21 11 - - ONO 1032,1 40 60 0,0
31.03.2020 08:00:00 4,7 0,8 - - 16 9 - - NO 1032,0 40 30 0,0
31.03.2020 07:00:00 5,0 1,1 - - 21 11 - - NO 1031,5 40 0 0,0
31.03.2020 06:00:00 6,2 1,7 - - 24 13 - - NO 1031,1 35 0 0,0
31.03.2020 05:00:00 6,3 1,9 - - 18 10 - - NO 1031,2 30 0 0,0
31.03.2020 04:00:00 6,5 1,5 - - 21 11 - - NO 1031,4 30 0 0,0
31.03.2020 03:00:00 5,6 1,5 - - 15 8 - - NO 1031,8 25 0 0,0
31.03.2020 02:00:00 6,2 1,4 - - 21 11 - - NO 1032,3 30 0 0,0
31.03.2020 01:00:00 5,9 0,6 - - 18 10 - - NO 1032,5 35 - 0,0
31.03.2020 00:00:00 6,4 0,7 - - 21 11 - - NO 1032,8 35 0 0,0
30.03.2020 23:00:00 7,2 0,8 - - 22 12 - - NO 1032,8 35 0 0,0
30.03.2020 22:00:00 7,8 0,0 - - 24 13 - - NO 1032,7 40 0 0,0
30.03.2020 21:00:00 8,0 1,3 - - 18 10 - - NNO 1032,8 35 0 0,0
30.03.2020 20:00:00 7,6 2,6 - - 24 13 - - NNO 1032,2 35 0 0,0
30.03.2020 19:00:00 7,9 1,7 - - 31 17 - - NNO 1032,3 40 6 0,0
30.03.2020 18:00:00 8,3 1,6 - - 29 16 - - NNO 1032,5 35 6 0,0
30.03.2020 17:00:00 8,1 2,0 - - 31 17 - - NNO 1032,9 35 12 0,0
30.03.2020 16:00:00 8,1 2,1 - - 31 17 46 25 NNO 1033,6 30 0 0,0
30.03.2020 15:00:00 7,7 2,1 - - 26 14 46 25 NNO 1034,3 35 18 0,0
30.03.2020 14:00:00 7,9 1,1 - - 31 17 - - N 1035,1 35 60 0,0
30.03.2020 13:00:00 7,9 1,1 - - 31 17 - - NNO 1035,8 35 54 0,0
30.03.2020 12:00:00 7,3 0,6 - - 28 15 - - NNO 1036,7 40 60 0,0
30.03.2020 11:00:00 6,4 -1,3 - - 26 14 - - NNO 1037,3 40 60 0,0
30.03.2020 10:00:00 5,4 -3,6 10,0 10,0 22 12 - - NNO 1038,0 40 24 0,0
30.03.2020 09:00:00 3,8 -2,4 - - 21 11 - - NNO 1038,6 35 6 0,0
30.03.2020 08:00:00 2,7 -4,3 - - 18 10 - - NO 1038,7 35 24 0,0
30.03.2020 07:00:00 1,8 -3,4 - - 22 12 - - NO 1038,9 26 0 0,0
30.03.2020 06:00:00 2,3 -2,9 - - 22 12 - - NO 1038,8 40 0 0,0
30.03.2020 05:00:00 2,6 -3,7 - - 15 8 - - NO 1039,2 22 0 0,0
30.03.2020 04:00:00 3,2 -3,8 - - 11 6 - - NNO 1039,5 22 0 0,0
30.03.2020 03:00:00 2,3 -3,5 - - 16 9 - - ONO 1039,9 40 0 0,0
30.03.2020 02:00:00 2,2 -3,2 - - 11 6 - - NNO 1040,5 26 0 0,0
30.03.2020 01:00:00 2,9 -4,5 - - 13 7 - - NO 1040,8 26 - 0,0
30.03.2020 00:00:00 3,0 -5,0 - - 16 9 - - ONO 1040,9 24 0 0,0
29.03.2020 23:00:00 4,1 -5,8 - - 22 12 - - NO 1040,9 26 0 0,0
29.03.2020 22:00:00 4,0 -5,4 - - 18 10 - - ONO 1040,2 26 0 0,0
29.03.2020 21:00:00 5,3 -6,0 - - 15 8 - - NO 1040,1 26 0 0,0
29.03.2020 20:00:00 6,4 -7,0 - - 28 15 - - NO 1039,5 30 24 0,0
29.03.2020 19:00:00 7,5 -4,2 - - 24 13 55 30 NO 1039,2 35 60 0,0
29.03.2020 18:00:00 7,9 -2,5 - - 37 20 55 30 NNO 1038,8 30 60 0,0
29.03.2020 17:00:00 8,1 -3,2 - - 35 19 52 28 NNO 1038,7 30 54 0,0
29.03.2020 16:00:00 8,0 -5,6 - - 28 15 54 29 NO 1038,7 35 54 0,0
29.03.2020 15:00:00 8,2 -5,7 - - 29 16 50 27 NO 1038,9 40 60 0,0
29.03.2020 14:00:00 7,6 -5,5 - - 35 19 54 29 NO 1039,2 40 60 0,0
29.03.2020 13:00:00 7,0 -5,9 - - 37 20 57 31 NO 1039,5 40 60 0,0
29.03.2020 12:00:00 6,6 -4,8 - - 31 17 52 28 NO 1039,6 35 54 0,0
29.03.2020 11:00:00 5,2 -6,1 - - 35 19 54 29 NO 1039,3 35 42 0,0
29.03.2020 10:00:00 4,8 -5,4 10,5 10,0 29 16 50 27 NO 1039,4 35 60 0,0
29.03.2020 09:00:00 3,9 -4,4 - - 26 14 - - NO 1039,3 30 60 0,0
29.03.2020 08:00:00 2,9 -3,1 - - 21 11 - - NO 1038,7 30 24 0,0
29.03.2020 07:00:00 2,5 -2,8 - - 22 12 - - NO 1038,1 28 0 0,0
29.03.2020 06:00:00 2,4 -2,4 - - 21 11 - - NO 1037,3 25 0 0,0
29.03.2020 05:00:00 2,9 -2,7 - - 22 12 - - NO 1036,6 30 0 0,0
29.03.2020 04:00:00 3,6 -4,2 - - 22 12 - - NO 1036,3 22 0 0,0
29.03.2020 03:00:00 4,9 -2,0 - - 16 9 55 30 NO 1035,8 24 0 0,0
29.03.2020 02:00:00 5,1 -2,7 - - 26 14 - - NO 1035,5 24 0 0,0
29.03.2020 01:00:00 5,8 -1,1 - - 21 11 48 26 NO 1034,7 24 - 0,0
29.03.2020 00:00:00 6,0 0,5 - - 16 9 - - NO 1033,9 25 0 0,0
28.03.2020 23:00:00 6,4 0,2 - - 16 9 - - NO 1032,8 25 0 0,0
28.03.2020 22:00:00 7,0 -0,1 - - 18 10 - - NO 1032,4 30 0 0,0
28.03.2020 21:00:00 7,6 0,9 - - 18 10 - - NO 1031,7 35 0 0,0
28.03.2020 20:00:00 8,7 1,3 - - 22 12 - - NO 1030,9 40 24 0,0
28.03.2020 19:00:00 10,0 0,9 - - 28 15 46 25 NO 1029,7 35 60 0,0
28.03.2020 18:00:00 10,9 1,2 - - 29 16 46 25 NO 1028,8 35 60 0,0
28.03.2020 17:00:00 10,5 4,8 - - 28 15 52 28 NNO 1028,3 22 60 0,0
28.03.2020 16:00:00 10,6 5,1 - - 35 19 50 27 NNO 1028,2 20 60 0,0
28.03.2020 15:00:00 10,2 5,3 - - 31 17 52 28 NNO 1028,3 15 60 0,0
28.03.2020 14:00:00 10,3 2,0 - - 34 18 48 26 NNO 1028,4 20 60 0,0
28.03.2020 13:00:00 11,3 2,1 - - 26 14 - - NO 1028,1 25 60 0,0
28.03.2020 12:00:00 9,3 2,2 - - 24 13 - - NO 1028,3 16 60 0,0
28.03.2020 11:00:00 7,7 0,2 - - 21 11 - - NO 1028,0 17 60 0,0
28.03.2020 10:00:00 6,2 -0,1 10,7 10,0 18 10 - - NO 1027,9 16 60 0,0
28.03.2020 09:00:00 4,5 -0,8 - - 21 11 - - NO 1027,4 15 60 0,0
28.03.2020 08:00:00 3,8 -1,2 - - 16 9 - - NO 1027,1 8 6 0,0
28.03.2020 07:00:00 3,1 -1,4 - - 13 7 - - NNO 1026,7 30 0 0,0
28.03.2020 06:00:00 3,0 -1,6 - - 11 6 - - NNO 1026,3 10 0 0,0
28.03.2020 05:00:00 3,3 -0,7 - - 13 7 - - NNO 1026,0 14 0 0,0
28.03.2020 04:00:00 3,9 0,3 - - 15 8 - - NNO 1025,7 8 0 0,0
28.03.2020 03:00:00 4,5 0,9 - - 15 8 - - NNO 1025,6 8 0 0,0
28.03.2020 02:00:00 5,9 2,3 - - 11 6 - - NO 1025,6 7 0 0,0
28.03.2020 01:00:00 6,6 3,3 - - 13 7 48 26 NO 1025,7 7 - 0,0
28.03.2020 00:00:00 6,6 4,0 - - 11 6 - - NO 1025,7 7 0 0,0
27.03.2020 23:00:00 6,2 3,3 - - 8 4 - - NO 1025,6 7 0 0,0
27.03.2020 22:00:00 6,9 1,7 - - 8 4 - - NO 1025,1 10 0 0,0
27.03.2020 21:00:00 7,5 2,7 - - 8 4 - - NO 1024,8 11 0 0,0
27.03.2020 20:00:00 7,8 4,9 - - 5 3 - - NNO 1024,4 12 12 0,0
27.03.2020 19:00:00 9,3 3,7 - - 5 3 - - NNO 1023,8 9 60 0,0
27.03.2020 18:00:00 10,3 -1,4 - - 11 6 - - O 1023,1 20 60 0,0
27.03.2020 17:00:00 10,2 4,8 - - 16 9 - - NNO 1023,0 9 60 0,0
27.03.2020 16:00:00 9,9 5,2 - - 22 12 - - NNO 1023,3 8 60 0,0
27.03.2020 15:00:00 9,4 2,7 - - 24 13 - - NNO 1023,5 20 60 0,0
27.03.2020 14:00:00 8,8 3,1 - - 24 13 - - N 1023,7 18 60 0,0
27.03.2020 13:00:00 9,0 1,7 - - 21 11 - - NNO 1024,2 22 60 0,0
27.03.2020 12:00:00 7,6 0,0 - - 15 8 - - NNO 1024,6 24 60 0,0
27.03.2020 11:00:00 8,5 -2,4 - - 13 7 - - NO 1024,4 24 60 0,0
27.03.2020 10:00:00 6,9 -1,6 10,7 10,0 11 6 - - ONO 1024,1 22 60 0,0
27.03.2020 09:00:00 5,1 -2,6 - - 11 6 - - OZO 1023,8 20 60 0,0
27.03.2020 08:00:00 3,5 -2,8 - - 8 4 - - NO 1023,4 17 18 0,0
27.03.2020 07:00:00 3,4 -1,9 - - 11 6 - - O 1022,9 15 0 0,0
27.03.2020 06:00:00 3,5 -1,2 - - 8 4 - - O 1022,5 14 0 0,0
27.03.2020 05:00:00 3,8 -0,2 - - 9 5 - - O 1022,3 12 0 0,0
27.03.2020 04:00:00 3,6 -0,1 - - 9 5 - - ONO 1022,6 10 0 0,0
27.03.2020 03:00:00 3,7 0,2 - - 4 2 - - OZO 1022,6 12 0 0,0
27.03.2020 02:00:00 5,2 -0,6 - - 8 4 - - O 1022,7 15 0 0,0
27.03.2020 01:00:00 5,8 0,0 - - 9 5 - - ONO 1022,8 12 - 0,0
27.03.2020 00:00:00 5,2 2,3 - - 5 3 - - ONO 1022,8 9 0 0,0
26.03.2020 23:00:00 6,1 2,9 - - 5 3 - - O 1022,4 10 0 0,0
26.03.2020 22:00:00 6,4 3,9 - - 5 3 - - ONO 1022,4 9 0 0,0
26.03.2020 21:00:00 7,3 2,7 - - 9 5 - - N 1022,3 13 0 0,0
26.03.2020 20:00:00 8,5 3,0 - - 5 3 - - NNO 1021,8 10 30 0,0
26.03.2020 19:00:00 10,2 3,3 - - 5 3 - - N 1021,8 12 60 0,0
26.03.2020 18:00:00 - - - - - - - - - - - - -

tt = temperatuur
td = dauwpunt
tt -20cm = temperatuur -20cm
tt -100cm = temperatuur -100cm
ff = windsnelheid
fx = windstoten
dd = windrichting
ppp = luchtdruk
vv = zicht
sd = Zonneschijnduur
rr = neerslag

Weerstations in de omgeving